NLSK1: Solomon River, Niles, KS

                                SHEF ID:       NLSK1     SOLOMON R AT NILES, KS
STATION TYPE:

PRECIP STAGE RIV-FLOW BAT-LOAD
in ft cfs volt
Ccp-Rev Ccp-Rev Ccp-Rev Ccp-Rev
(America/Chicago)
06/18 00:00 0.00 8.26 728 11.79
06/18 01:00 0.00 8.22 720 11.73
06/18 02:00 0.00 8.19 645 11.78
06/18 03:00 0.00 8.15 638 11.79
06/18 04:00 0.00 8.12 632 11.78
06/18 05:00 0.00 8.08 625 11.82
06/18 06:00 0.00 8.04 617 11.85
06/18 07:00 0.00 8.01 612 11.56
06/18 08:00 0.00 7.98 606 11.54
06/18 09:00 0.00 7.95 601 11.47
06/18 10:00 0.00 7.92 595 11.60
06/18 11:00 0.00 7.89 590 11.94
06/18 12:00 0.00 7.86 584 12.24
06/18 13:00 0.00 7.83 579 12.46
06/18 14:00 0.00 7.80 574 12.50
06/18 15:00 0.00 7.78 570 12.83
06/18 16:00 0.00 7.74 563 12.72
06/18 17:00 0.00 7.71 558 12.57
06/18 18:00 0.00 7.68 552 12.42
06/18 19:00 0.00 7.65 547 12.02
06/18 20:00 0.00 7.62 542 11.89
06/18 21:00 0.00 7.59 537 11.88
06/18 22:00 0.00 7.56 532 11.93
06/18 23:00 0.00 7.53 526 11.98
Data processed at Mon 22Jun2026 03:41 GMT

NOTICE: If you are parsing this page

Please convert to using our Data API. Starting early 2026 we will be migrating to: https://water.usace.army.mil with modern pages rendered in JavaScript. When this migration completes you will no longer be able to scrape this page! CWMSDataAPI (CDA)

Timeseries IDs (TSIDs)

TSIDs used from left to right in the data table
NLSK.Precip-Inc.Total.1Hour.1Hour.Ccp-Rev
NLSK.Stage.Inst.1Hour.0.Ccp-Rev
NLSK.Flow.Inst.1Hour.0.Ccp-Rev
NLSK.Volt-Battery Load.Inst.1Hour.0.Ccp-Rev

                            

All information presented herein is the property of the government of the United States of America and may be revised or deleted at any time without prior notice. Dissemination of this information without the expressed written consent of the Public Affairs Office, Tulsa District U.S. Army Corps of Engineers is strictly prohibited. These data are gathered electronically and, as presented, have NOT undergone any form of quality control. These data are NOT guaranteed to be valid or correct.